Regional Weather Roundup
Issued by NWS

Home | Current Version | Previous Version | Graphics & Text | Print | Product List | Glossary Off
Versions: 1 2 3 4 5 6 7 8 9 10 11 12 13 14 15 16 17 18 19 20 21 22 23 24 25 26 27 28 29 30 31 32 33 34 35 36 37 38 39 40 41 42 43 44 45 46 47 48 49 50

000
ASUS43 KMPX 291901
RWRMN
WEATHER ROUNDUP FOR MINNESOTA
NATIONAL WEATHER SERVICE TWIN CITIES/CHANHASSEN MN
200 PM CDT MON MAY 29 2017


NOTE: "FAIR" INDICATES FEW OR NO CLOUDS BELOW 12,000 FEET WITH NO
SIGNIFICANT WEATHER AND/OR OBSTRUCTIONS TO VISIBILITY. N/A MEANS
CURRENT SKY AND/OR WEATHER CONDITIONS ARE NOT AVAILABLE.

MNZ060>063-068>070-292000-
   Twin Cities Metro

CITY           SKY/WX    TMP DP  RH WIND       PRES   REMARKS
TWIN CITIES    LGT RAIN  62  49  62 NW18G29   29.82R
ST PAUL        PTSUNNY   59  53  80 W8        29.81S
CRYSTAL        CLOUDY    63  47  55 W14G26    29.81R
BLAINE         CLOUDY    64  48  55 W15G25    29.80F
LAKEVILLE      MOSUNNY   63  48  59 W15G23    29.82S
EDEN PRAIRIE   MOSUNNY   62  53  72 W9G18     29.82S
SOUTH ST PAUL  PTSUNNY   60  53  78 W15       29.81S
LAKE ELMO      PTSUNNY   63  50  63 W15G25    29.81F
$$
MNZ001>005-007-008-013>017-022>024-027-028-292000-
   Northwest Minnesota

CITY           SKY/WX    TMP DP  RH WIND       PRES   REMARKS
BEMIDJI        CLOUDY    52  43  71 NW21G26   29.82R
HALLOCK        CLOUDY    55  45  67 NW21G28   29.84R
ROSEAU         CLOUDY    55  43  62 NW21G26   29.80R
WARROAD        CLOUDY    54  43  66 NW18G24   29.80R
THIEF RVR FALL LGT RAIN  52  48  87 NW15G26   29.85S
CROOKSTON      CLOUDY    52  52 100 N20       29.86R
FOSSTON        CLOUDY    54  46  76 W15       29.85S
DETROIT LAKES  CLOUDY    54  46  76 NW10      29.89R
MOORHEAD       PTSUNNY   57  48  72 N12       29.90S
MAHNOMEN       CLOUDY    54  48  81 NW14      29.86S
$$
MNZ006-009>011-018-025>026-292000-
   North Central Minnesota

CITY           SKY/WX    TMP DP  RH WIND       PRES   REMARKS
FLAG ISLAND    CLOUDY    52  39  62 NW21      29.75S
INTL FALLS     CLOUDY    54  46  74 NW12G22   29.71R
WASKISH        CLOUDY    54  45  71 NW13      29.79R
BIG FORK       CLOUDY    55  46  71 W9        29.75
LONGVILLE      CLOUDY    52  46  82 W14G20    29.80R
GRAND RAPIDS   CLOUDY    53  46  77 W13       29.79R
CRANE LAKE     CLOUDY    52  52 100 NW5       29.70S
COOK           CLOUDY    52  50  93 W10       29.72R
WALKER         CLOUDY    50  43  76 NW14G20   29.82R
$$
MNZ012-019>021-037-292000-
   Northeast Minnesota

CITY           SKY/WX    TMP DP  RH WIND       PRES   REMARKS
DULUTH         LGT RAIN  54  51  90 NW12      29.72R
ELY            LGT RAIN  50  48  93 W14G20    29.68R
HIBBING        LGT RAIN  50  49  96 W7        29.74R
EVELETH        LGT RAIN  53  49  87 W9        29.73S
DULUTH HARBOR  CLOUDY    59  52  77 W16       29.73R
TWO HARBORS    CLOUDY    61  52  72 NW13G21   29.68R
SILVER BAY     CLOUDY    59  52  77 W8        29.65R
GRAND MARAIS     N/A     59  50  72 W10       29.59R
G MARAIS ARPRT CLOUDY    57  46  67 W9G22     29.61S
$$
MNZ029>031-032-039>041-046>048-054>057-064-292000-
   West Central Minnesota

CITY           SKY/WX    TMP DP  RH WIND       PRES   REMARKS
FERGUS FALLS   CLOUDY    57  48  72 NW15G21   29.89S
WHEATON        PTSUNNY   57  48  72 NW18G25   29.95R
MORRIS         CLOUDY    59  48  67 NW24      29.90F
ALEXANDRIA     CLOUDY    56  48  74 NW21      29.89R
ELBOW LAKE     CLOUDY    56  47  71 W16G24    29.91S
WADENA         CLOUDY    54  43  66 NW18G26   29.85S
GLENWOOD       PTSUNNY   54  48  82 NW21G31   29.89R HAZE
APPLETON       CLOUDY    61  45  55 NW17G25   29.92R
BENSON         DRIZZLE   57  52  82 N17       29.93R
ORTONVILLE     PTSUNNY   57  48  72 NW16      29.93S
MADISON        CLOUDY    61  52  72 NW20G29   29.94R
WILLMAR        LGT RAIN  57  50  77 NW16G26   29.91R
$$
MNZ033>034-036-042>043-049>051-058-059-292000-
   Central Minnesota

CITY           SKY/WX    TMP DP  RH WIND       PRES   REMARKS
ST CLOUD       CLOUDY    60  48  64 NW17G23   29.82S
SAUK CENTRE    CLOUDY    56  47  70 W18G31    29.87R
PAYNESVILLE    CLOUDY    58  45  61 W18G28    29.87R
AITKIN         CLOUDY    57  46  67 W10G17    29.77R
PINE RIVER     CLOUDY    54  46  76 W12G18    29.85R
STAPLES        CLOUDY    54  43  66 NW22G28   29.84R
LONG PRAIRIE   CLOUDY    54  45  71 W14G26    29.86R
LITTLE FALLS   CLOUDY    57  45  62 W15G21    29.83R
LITCHFIELD     MOSUNNY   63  52  67 NW20G25   29.86S
BUFFALO        PTSUNNY   60  47  62 W15G26    29.84S
MAPLE LAKE     PTSUNNY   61  50  66 NW12G21   29.84F
HUTCHINSON     CLOUDY    64  49  57 W18       29.86F
$$
MNZ037-044-045-052-053-292000-
   East Central Minnesota

CITY           SKY/WX    TMP DP  RH WIND       PRES   REMARKS
PRINCETON      PTSUNNY   61  52  72 W17G25    29.81S
MORA           MOSUNNY   55  50  82 NW13      29.79F
CAMBRIDGE      CLOUDY    61  48  63 W9G18     29.78R
RUSH CITY      LGT RAIN  53  47  81 W3        29.80R
MOOSE LAKE     PTSUNNY   61  46  59 NW12G17   29.74S
HINCKLEY       CLOUDY    59  50  72 W10       29.77R
CLOQUET        CLOUDY    57  45  62 W20G25    29.74R
MCGREGOR       CLOUDY    59  46  63 W13G18    29.77S
$$
MNZ071>073-080-081-089-090-097-098-292000-
   Southwest Minnesota

CITY           SKY/WX    TMP DP  RH WIND       PRES   REMARKS
MONTEVIDEO     CLOUDY    61  46  59 N13G26    29.92R
CANBY          CLOUDY    61  51  69 W23G30    29.95S
MARSHALL       LGT RAIN  57  53  86 W15       29.94S FOG
REDWOOD FALLS  CLOUDY    61  48  62 W20G35    29.90R
OLIVIA         CLOUDY    61  45  55 NW20G36   29.89R
PIPESTONE      LGT RAIN  57  46  67 NW17G29   29.97S
WINDOM         MOSUNNY   61  45  55 W22G30    29.93S
WORTHINGTON    CLOUDY    61  47  59 W28       29.94
JACKSON        CLOUDY    59  48  67 NW12      29.94S
TRACY          HVY RAIN  56  51  82 NW20G25   29.96R
SLAYTON        PTSUNNY   59  46  61 W20G28    29.95S
$$
MNZ065>067-074>077-082>085-091>093-292000-
   South Central Minnesota

CITY           SKY/WX    TMP DP  RH WIND       PRES   REMARKS
MANKATO        CLOUDY    61  47  59 W24G31    29.87S
NEW ULM        CLOUDY    61  48  63 NW18G28   29.89S
FAIRMONT       PTSUNNY   62  47  57 W18G26    29.91F
GLENCOE        PTSUNNY   65  50  59 NW20G28   29.85S
FARIBAULT      PTSUNNY   63  46  55 W20G29    29.85S
OWATONNA       RAIN      61  48  63 W22G30    29.87R
WASECA         PTSUNNY   64  46  52 W24G31    29.88F
ALBERT LEA     PTSUNNY   66  46  48 W17G26    29.87S
$$
MNZ078>079-086>088-094>096-292000-
   Southeast Minnesota

CITY           SKY/WX    TMP DP  RH WIND       PRES   REMARKS
ROCHESTER      CLOUDY    62  45  53 W17G26    29.85S
RED WING       PTSUNNY   63  46  55 NW7       29.80S
STANTON        PTSUNNY   63  49  60 W13G18    29.82S
DODGE CENTER   MOSUNNY   64  45  48 W15G28    29.84F
WINONA         LGT RAIN  54  50  87 NW6       29.83R
AUSTIN         SUNNY     63  48  59 W18       29.86F
PRESTON        CLOUDY    60  45  56 W17G23    29.86R
$$
ABBREVIATIONS USED IN REMARKS
   TC - TEMPERATURES IN CELSIUS
  WCI - WIND CHILL INDEX
   HX - HEAT INDEX
  VSB - VISIBILITY
$$




USA.gov is the U.S. government's official web portal to all federal, state and local government web resources and services.